Regional Weather Roundup
Issued by NWS Wakefield, VA

Home | Current Version | Previous Version | Text Only | Print | Product List | Glossary Off
Versions: 1 2 3 4 5 6 7 8 9 10 11 12 13 14 15 16 17 18 19 20 21 22 23 24 25 26 27 28 29 30 31 32 33 34 35 36 37 38 39 40 41 42 43 44 45 46 47 48 49 50

000
ASUS41 KAKQ 121514
RWRAKQ

REGIONAL WEATHER ROUNDUP
NATIONAL WEATHER SERVICE WAKEFIELD VA
1000 AM EST FRI FEB 12 2016

Note: "fair" indicates few or no clouds below 12,000 feet with no
significant weather and/or obstructions to visibility. * = Denotes
station may not report precipitation (e.g., rain,snow,etc.),
thunder or fog.

VAZ042-051-052>054-056-121600-
NORTHERN VIRGINIA

CITY           SKY/WX    TMP DP  RH WIND       PRES   REMARKS
WASH NATIONAL  CLOUDY    24   5  44 S7        30.30F
DULLES         PTSUNNY   24   5  44 VRB3      30.26R
FORT BELVOIR   FAIR      25   4  40 CALM      30.29F
QUANTICO       CLOUDY    26  10  50 S9        30.32F
FREDERICKSBRG* PTSUNNY   25   7  45 SE8       30.29F
STAFFORD*      PTSUNNY   24   5  44 SE8       30.33F
WARRENTON      PTSUNNY   26  12  55 S5        30.26F
CULPEPER*      CLOUDY    24   7  49 S6        30.27F
MANASSAS*      NOT AVBL
LEESBURG*      CLOUDY    27  10  50 S5        30.26F
WINCHESTER     CLOUDY    23   9  54 S6        30.20F
FRONT ROYAL*   CLOUDY    23   9  54 SE6       30.19F
LURAY*         CLOUDY    23   9  54 CALM      30.18F
$$

VAZ048-049-060>072-079>083-121600-
CENTRAL AND SOUTH CENTRAL VIRGINIA

CITY           SKY/WX    TMP DP  RH WIND       PRES   REMARKS
RICHMOND       CLOUDY    24   5  44 E6        30.29F
CHESTERFIELD*  CLOUDY   N/A N/A N/A E5        30.29F
PETERSBURG*    CLOUDY    28   0  30 E7        30.30F
HANOVER        CLOUDY    24   4  42 E3        30.30F
TAPPAHANNOCK*  PTSUNNY   25   6  44 CALM      30.31F
QUINTON*       CLOUDY    24   6  46 E5        30.29F
CHARLOTTSVILLE FAIR      26   4  38 S6        30.22F
GORDONSVILLE*  CLOUDY    25   5  41 SW6       30.24F
ORANGE*        CLOUDY    27   7  43 SE5       30.26F
LOUISA*        PTSUNNY   27   7  43 S5        30.24F
BUMPASS*       CLOUDY    24   4  42 SE5       30.27F
FARMVILLE*     CLOUDY    26   6  42 E3        30.26S
CREWE*         CLOUDY    26   4  40 E5        30.26F
FORT PICKETT*  NOT AVBL
CHASE CITY*    CLOUDY    25   2  36 E6        30.25F
CLARKSVILLE*   PTSUNNY   27   9  46 E3        30.25F
SOUTH HILL*    CLOUDY    25   6  43 CALM      30.31F
LAWRENCEVILLE* PTSUNNY   26   6  43 E3        30.26F
EMPORIA*       PTSUNNY   28  10  47 E6        30.29F
$$

VAZ088>098-121600-
SOUTHEAST VIRGINIA

CITY           SKY/WX    TMP DP  RH WIND       PRES   REMARKS
NORFOLK        PTSUNNY   28  10  46 E7        30.31S
VIRGINIA BEACH PTSUNNY   32  11  41 E6        30.30F
NORFOLK NAVAL  PTSUNNY   29  12  49 E7        30.32F
WEST POINT*    CLOUDY   N/A N/A N/A E5        30.32F
SALUDA*        CLOUDY    25   4  41 CALM      30.31F
NEWPORT NEWS   CLOUDY    27  12  53 NE7       30.31F
LANGLEY AFB    CLOUDY    27  12  52 NE8       30.30F
FORT EUSTIS    CLOUDY    27   8  45 E6        30.29F
WILLIAMSBURG*  PTSUNNY   30  10  43 CALM      30.31F
HR EXEC AP*    FAIR      30  16  55 E6        30.32S
FRANKLIN*      CLOUDY    27  11  50 E8        30.30F
US460-WAKEFLD  PTSUNNY   27   7  42 VRB5      30.30F
$$

VAZ020-022-025-037-045-121600-
WEST CENTRAL AND SOUTHWEST VIRGINIA

CITY           SKY/WX    TMP DP  RH WIND       PRES   REMARKS
STAUNTON*      PTSUNNY   27  10  49 S6        30.18F
WAYNESBORO*    CLOUDY    23   4  43 SE3       30.14F
HOT SPRINGS VA CLOUDY    19   9  64 SW7       29.94F
LYNCHBURG      CLOUDY    23   5  46 SE8       30.22F
DANVILLE       CLOUDY    27   6  41 E3        30.24F
SOUTH BOSTON*  CLOUDY    26   3  37 SE3       30.25F
MARTINSVILLE   CLOUDY    24   4  41 CALM      30.24S
ROANOKE        PTSUNNY   25   6  44 SE7       30.20F
BLACKSBURG     PTSUNNY   24  13  62 SE6       30.13F
DUBLIN*        PTSUNNY   25  14  61 CALM      30.11F
MARION*        CLOUDY    26  12  57 E3        30.09S
HILLSVILLE*    FAIR      24   9  51 S9        30.05F
RICHLANDS*     CLOUDY    26  13  59 CALM      30.04S
WISE*          LGT SNOW  28  21  74 S6        30.03F
ABINGDON*      LGT SNOW  29  19  67 CALM      30.09S VSB 3/4
$$

MDZ021>025-VAZ099-100-121600-
SOUTHERN MARYLAND AND THE DELMARVA PENINSULA

CITY           SKY/WX    TMP DP  RH WIND       PRES   REMARKS
PATUXENT RIVER PTSUNNY   25   2  37 CALM      30.31F
BAY BRIDGE APT   N/A     23   3  42 CALM      30.30F
LEONARDTOWN      N/A     25   3  39 CALM      30.31F
DOVER          MOSUNNY   21   5  49 SW5       30.29S
GEORGETOWN     SUNNY     23   3  42 VRB3      30.31F
EASTON         MOSUNNY   25   7  46 CALM      30.34F
CAMBRIDGE      SUNNY     27   7  43 W3        30.29F
SALISBURY      SUNNY     23   5  46 CALM      30.31S
OCEAN CITY     SUNNY     24   3  40 CALM      30.31F
WALLOPS ISLAND FAIR      25   3  38 CALM      30.33S
ACCOMACK*      FAIR      27   5  39 CALM      30.31F
$$

NCZ012>017-030>032-121600-
NORTH CENTRAL AND EASTERN NORTH CAROLINA

CITY           SKY/WX    TMP DP  RH WIND       PRES   REMARKS
ROANOKE RAPIDS PTSUNNY   28  10  47 E3        30.28S
RALEIGH        CLOUDY    29   8  41 E8        30.25S
ELIZABETH CITY CLOUDY    31  16  54 NE8       30.29F
AHOSKIE*       CLOUDY    27  11  51 E3        30.29F
EDENTON*       CLOUDY    32  19  58 NE5       30.30S
CURRITUCK*     CLOUDY    32  17  55 NE9       30.29F
KILL DEVIL HLS PTSUNNY   35  19  52 E6        30.26F
MANTEO         PTSUNNY   33  20  59 E8        30.29S
CAPE HATTERAS  CLOUDY    38  24  57 NE9       30.27F
TARBORO*       CLOUDY    30  15  55 E8        30.27F
GOLDSBORO      NOT AVBL
WASHINGTON     MOSUNNY   32  21  62 E8        30.27F
GREENVILLE     CLOUDY    32  18  55 E7        30.27F
NEW BERN       CLOUDY    35  22  58 E8        30.26F
WILMINGTON     LGT RAIN  34  26  72 NE12      30.20F
$$

VAZ048-121600-
ELSEWHERE

CITY           SKY/WX    TMP DP  RH WIND       PRES   REMARKS
HARRISBURG PA  CLOUDY    20   6  55 SW9       30.25S
BALTIMORE      PTSUNNY   22   2  42 S6        30.28F
ANNAPOLIS      MOSUNNY   22   2  42 CALM      30.30F
ANDREWS AFB    FAIR      23   2  39 VRB1      30.27F
PHILADELPHIA   PTSUNNY   21  -1  38 VRB3      30.29F
HENDERSON NC   CLOUDY    27   3  36 CALM      30.25R
GREENSBORO     CLOUDY    26   5  40 E5        30.19F
ROCKY MOUNT    CLOUDY    28  11  48 NE5       30.26F
$$

VAZ100-121600-
MARINE

STATION/POSITION TIME  TEMP    WIND        PRES    WAVE   SWELL
                       AIR SEA DIR/SP/G            HT/PER HT/PER
                 (UTC) (F)     (DEG/KT/KT) (MB)    (FT/S) (FT/S)
BRANDYWINE LGT   1400   21     350/  9/ 11 1026.0F
CAPE MAY NJ      1400   23 36  320/  6/  8 1025.9F
LEWES DE         1400   22 37  300/  9/ 11 1026.1F
15NM E FENWICK I 1450   25 43              1026.1F   2/ 4
OCEAN-CITY-INLET 1400   22 40  350/  6/  7 1025.8F
WACHAPREAGUE VA  1400   25 34   20/  4/  6 1027.0R
THOMAS POINT MD  1500   21 36  220/  3/  4 1026.8F
GOOSES REEF MD   1500   24 38  330/  2/  4 1027.2F   1
COVE POINT MD    1400   22     330/  4/  7 1027.3F
SOLOMONS ISLAND  1400   23 39  360/  3/  4   N/A
BISHOPS HEAD MD  1418   23 31  270/  2/  4 1025.7F
PINEY POINT MD   1400           CALM  /  3   N/A
POTOMAC MD       1500   24 39  290/  4/  6 1025.4F   0
CAMBRIDGE MD     1400   22 36  350/  3/  5 1025.9F
LEWISETTA VA     1400   24 37  360/  4/  5 1026.8S
RAPPAHANNOCK LGT 1400           80/  7/  9 1027.1R
STINGRAY PT      1500   26 40   40/  4/  6 1026.5F   1/ 3
YORK RVR RNG VA  1400   25      20/  7/ 10 1026.4R
YORKTOWN VA      1400   25 40   20/  6/  7 1026.8R
JAMESTOWN VA     1500   25 41   80/  4/  8   N/A     0
DOMINION TERM VA 1400   27      30/  5/  8 1026.8F
KIPTOPEKE VA     1400      39   80/  5/  7   N/A
CHES BAY BRIDGE  1400   26 40   20/  8/ 10 1026.3S
CAPE HENRY VA    1400   26      20/  6/ 10   N/A
CHESAPEAKE LGHT  1400   27      20/  5/  7 1027.3R
WILLOUBY STN VA  1400   27      30/  7/  9 1027.4S
CAPE HENRY BUOY  1428      42                N/A     2/ 5
1ST LANDING BUOY 1500      40                N/A     1/ 3
CAPE CHARLES BUO 1426      42                N/A     2/ 4   2/ 4
OFFSHORE WE BUOY 1421      45                N/A     3/ 5   2/ 5
64NM E OF VA BCH 1450   31 50  340/  4/  8 1026.0F   4/ 6   3/ 6
DUCK PIER NC     1400   31      30/  9/ 12 1025.4F
44100 DUCK FRF   1424      46                N/A     3/ 6
44056 DUCK FRF   1411      43                N/A     3/ 5
OREGON INLET NC  1400   33 40   20/  9/ 13 1025.6F
HATTERAS NC      1400   37 45   50/  9/ 11 1024.9S
DIAMOND SHLS NC  1450   44 70   30/ 14/ 17 1024.5F   3/ 8   2/ 8
$$



USA.gov is the U.S. government's official web portal to all federal, state and local government web resources and services.